[Iaude] MPEC V57: 2023 VN1 [a=1.24,e=0.22,i=11.7,H=27.1]

mpec at marsden.cfa.harvard.edu mpec at marsden.cfa.harvard.edu
Sun Nov 5 20:18:30 EST 2023


M.P.E.C. 2023-V57                              Issued 2023 November 6, 01:16 UT

     The Minor Planet Electronic Circulars contain information on unusual
         minor planets, routine data on comets and natural satellites,
         and occasional editorial announcements.  They are published
    on behalf of Division F of the International Astronomical Union by the
          Minor Planet Center, Smithsonian Astrophysical Observatory,
                          Cambridge, MA 02138, U.S.A.
			  
             Prepared using the Tamkin Foundation Computer Network

                              MPC at CFA.HARVARD.EDU
            URL https://www.minorplanetcenter.net/    ISSN 1523-6714

                                    2023 VN1                                    


Observations:
     K23V01N*1C2023 11 04.34752602 38 15.940+17 37 46.96         20.85GVEV057G96
     K23V01N 1C2023 11 04.35268002 38 14.204+17 39 17.06         20.24GVEV057G96
     K23V01N 1C2023 11 04.35784202 38 12.584+17 40 45.59         20.48GVEV057G96
     K23V01N KC2023 11 04.44876702 37 43.817+18 07 13.22         20.11GVEV057I52
     K23V01N KC2023 11 04.44998102 37 43.446+18 07 34.32         20.94GVEV057I52
     K23V01N KC2023 11 04.45119102 37 43.043+18 07 54.98         20.47GVEV057I52
     K23V01N KC2023 11 04.45239702 37 42.726+18 08 16.48         20.70GVEV057I52
     K23V01N KC2023 11 05.18690202 34 38.680+21 54 09.72         20.08GVEV057I52
     K23V01N KC2023 11 05.18842002 34 38.183+21 54 38.92         20.41GVEV057I52
     K23V01N KC2023 11 05.18937402 34 32.97 +21 54 44.2          20.5 GVEV057H21
     K23V01N KC2023 11 05.18992502 34 37.628+21 55 07.79         20.73GVEV057I52
     K23V01N KC2023 11 05.19077302 34 32.46 +21 55 11.4          20.7 GVEV057H21
     K23V01N KC2023 11 05.19217202 34 31.92 +21 55 38.5          20.6 GVEV057H21
     K23V01N KC2023 11 05.98832102 30 15.42 +26 18 28.7          20.0 GVEV057L01
     K23V01N KC2023 11 05.99017202 30 14.67 +26 19 06.1          20.3 GVEV057L01
     K23V01N KC2023 11 05.99214702 30 13.87 +26 19 46.8          20.3 GVEV057L01
     K23V01N KC2023 11 05.99412302 30 13.10 +26 20 27.4          20.4 GVEV057L01
     K23V01N KC2023 11 05.99609802 30 12.30 +26 21 07.1          20.5 GVEV057L01

Observer details:
G96 Mt. Lemmon Survey.  Observer J. B. Fazekas.  Measurers E. C. Beshore, D.
    Fay, J. B. Fazekas, D. C. Fuls, A. R. Gibbs, A. D. Grauer, H. Groeller, J.
    K. Hogan, R. A. Kowalski, S. M. Larson, G. J. Leonard, D. Rankin, R. L.
    Seaman, F. C. Shelly, K. W. Wierzchos.  1.5-m reflector + 10K CCD.
H21 Astronomical Research Observatory, Westfield.  Observer R. Holmes.
    Measurers T. Linder, R. Holmes, L. Horn.  0.76-m f/3.0 astrograph + CCD.
I52 Steward Observatory, Mt. Lemmon Station.  Observers D. Rankin, R. A.
    Kowalski.  Measurers E. C. Beshore, D. Fay, J. B. Fazekas, D. C. Fuls, A.
    R. Gibbs, A. D. Grauer, H. Groeller, J. K. Hogan, R. A. Kowalski, S. M.
    Larson, G. J. Leonard, D. Rankin, R. L. Seaman, F. C. Shelly, K. W.
    Wierzchos.  1.0-m prime focus + CCD.
L01 Visnjan Observatory, Tican.  Observer K. Korlevic.  1.0-m f/2.9 reflector
    + CCD.

Orbital elements:
2023 VN1                                                 Earth MOID = 0.0366 AU
Epoch 2023 Sept. 13.0 TT = JDT 2460200.5                Veres                   
M 289.84728              (2000.0)            P               Q                  
n   0.71160109     Peri.   50.98693     -0.02367494     -0.99087331             
a   1.2425436      Node    40.97396     +0.84325852     -0.09109166             
e   0.2221272      Incl.   11.67593     +0.53698656     +0.09935993             
P   1.39           H   27.13          G   0.15           U   7                  
Residuals in seconds of arc
231104 G96  0.3+  0.8+    231104 I52  0.1+  0.0     231105 H21  0.3-  0.4+
231104 G96  0.5-  0.9+    231105 I52  0.3-  0.1-    231105 L01  0.2-  0.0
231104 G96  0.4+  0.7-    231105 I52  0.3+  0.3-    231105 L01  0.1-  0.3-
231104 I52  0.0   0.1+    231105 H21  0.1+  0.1-    231105 L01  0.0   0.1+
231104 I52  0.0   0.0     231105 I52  0.1+  0.6-    231105 L01  0.4+  0.4+
231104 I52  0.5-  0.4-    231105 H21  0.1+  0.2+    231105 L01  0.5+  0.2-

Ephemeris:
2023 VN1                 a,e,i = 1.24, 0.22, 12                  q = 0.9665
Date    TT    R. A. (2000) Decl.     Delta      r    Elong.  Phase     V
2023 10 07    03 04 04.9 -21 59 44   0.1623  1.1240   137.1    37.3    24.9
...
2023 10 22    03 03 20.1 -14 42 01   0.09208 1.0745   147.8    29.5    23.4
...
2023 10 30    02 53 48.3 -01 39 54   0.05977 1.0502   162.0    17.0    22.0
...
2023 11 05    02 35 24.8 +20 55 49   0.04188 1.0334   174.5     5.3    20.7
2023 11 06    02 30 15.0 +26 23 25   0.03997 1.0307   169.0    10.6    20.9
2023 11 07    02 24 02.8 +32 18 28   0.03849 1.0281   163.0    16.4    21.0
...
2023 11 13    00 51 09.5 +68 41 26   0.04017 1.0132   124.6    53.5    22.1
...
2023 11 21    17 42 07.3 +73 52 51   0.06204 0.9960    95.6    80.9    23.9
...
2023 12 06    16 03 22.6 +57 52 44   0.1156  0.9737    80.8    92.5    25.7

M. P. C. Staff               (C) Copyright 2023 MPC           M.P.E.C. 2023-V57




More information about the Iaude mailing list